Tracking 22879 objects as of 22-Apr-2021
HD Live streaming from Space Station
objects crossing your sky now

FLOCK 3K 3

Track FLOCK 3K 3 now!
10-day predictions
FLOCK 3K 3 is classified as:


NORAD ID: 43892
Int'l Code: 2018-111S
Perigee: 473.2 km
Apogee: 504.7 km
Inclination: 97.2 °
Period: 94.2 minutes
Semi major axis: 6859 km
RCS: Unknown
Launch date: December 27, 2018
Source: United States (US)
Launch site: VOSTOCHNY COSMODROME (VOSTO)
aabbcc
Your satellite tracking list
Your tracking list is empty




NASA's NSSDC Master Catalog

Two Line Element Set (TLE):
1 43892U 18111S   21112.14852991  .00005895  00000-0  21682-3 0  9993
2 43892  97.2404   9.2637 0022956 129.9073 230.4190 15.27998941129125
Source of the keplerian elements: AFSPC